Time,TemperatureF,DewpointF,PressureIn,WindDirection,WindDirectionDegrees,WindSpeedMPH,WindSpeedGustMPH,Humidity,HourlyPrecipIn,Conditions,Clouds,dailyrainin,SolarRadiationWatts/m^2,SoftwareType,DateUTC
2013-02-09 00:01:00,72.0,64.0,-100.00,ENE,67,5.0,6.0,76,0.00,,,0.00,0.000000,,2013-02-09 10:01:00,
2013-02-09 00:11:00,72.0,64.0,-100.00,ENE,67,5.0,6.0,76,0.00,,,0.00,0.000000,,2013-02-09 10:11:00,
2013-02-09 00:32:00,72.0,62.0,-100.00,East,81,4.0,7.0,72,0.00,,,0.00,0.000000,,2013-02-09 10:32:00,
2013-02-09 00:42:00,72.0,62.0,-100.00,East,81,4.0,7.0,72,0.00,,,0.00,0.000000,,2013-02-09 10:42:00,
2013-02-09 00:52:00,72.0,62.0,-100.00,East,81,4.0,7.0,72,0.00,,,0.00,0.000000,,2013-02-09 10:52:00,
2013-02-09 01:01:00,72.0,62.0,-100.00,East,81,4.0,7.0,72,0.00,,,0.00,0.000000,,2013-02-09 11:01:00,
2013-02-09 01:11:00,72.0,62.0,-100.00,East,81,4.0,7.0,72,0.00,,,0.00,0.000000,,2013-02-09 11:11:00,
2013-02-09 01:32:00,72.0,62.0,-100.00,ENE,67,5.0,7.0,70,0.00,,,0.00,0.000000,,2013-02-09 11:32:00,
2013-02-09 01:42:00,72.0,62.0,-100.00,ENE,67,5.0,7.0,70,0.00,,,0.00,0.000000,,2013-02-09 11:42:00,
2013-02-09 01:52:00,72.0,62.0,-100.00,ENE,67,5.0,7.0,70,0.00,,,0.00,0.000000,,2013-02-09 11:52:00,
2013-02-09 02:02:00,72.0,62.0,-100.00,ENE,67,5.0,7.0,70,0.00,,,0.00,0.000000,,2013-02-09 12:02:00,
2013-02-09 02:11:00,72.0,62.0,-100.00,ENE,67,5.0,7.0,70,0.00,,,0.00,0.000000,,2013-02-09 12:11:00,
2013-02-09 02:32:00,70.0,61.0,-100.00,East,87,1.0,7.0,72,0.00,,,0.00,0.000000,,2013-02-09 12:32:00,
2013-02-09 02:42:00,70.0,61.0,-100.00,East,87,1.0,7.0,72,0.00,,,0.00,0.000000,,2013-02-09 12:42:00,
2013-02-09 02:52:00,70.0,61.0,-100.00,East,87,1.0,7.0,72,0.00,,,0.00,0.000000,,2013-02-09 12:52:00,
2013-02-09 03:02:00,70.0,61.0,-100.00,East,87,1.0,7.0,72,0.00,,,0.00,0.000000,,2013-02-09 13:02:00,
2013-02-09 03:11:00,70.0,61.0,-100.00,East,87,1.0,7.0,72,0.00,,,0.00,0.000000,,2013-02-09 13:11:00,
2013-02-09 03:42:00,69.0,61.0,-100.00,NE,51,5.0,6.0,77,0.00,,,0.00,0.000000,,2013-02-09 13:42:00,
2013-02-09 03:52:00,69.0,61.0,-100.00,NE,51,5.0,6.0,77,0.00,,,0.00,0.000000,,2013-02-09 13:52:00,
2013-02-09 04:01:00,69.0,61.0,-100.00,NE,51,5.0,6.0,77,0.00,,,0.00,0.000000,,2013-02-09 14:01:00,
2013-02-09 04:11:00,69.0,61.0,-100.00,NE,51,5.0,6.0,77,0.00,,,0.00,0.000000,,2013-02-09 14:11:00,
2013-02-09 04:42:00,67.0,60.0,-100.00,NE,53,5.0,7.0,79,0.00,,,0.00,0.000000,,2013-02-09 14:42:00,
2013-02-09 04:52:00,67.0,60.0,-100.00,NE,53,5.0,7.0,79,0.00,,,0.00,0.000000,,2013-02-09 14:52:00,
2013-02-09 05:01:00,67.0,60.0,-100.00,NE,53,5.0,7.0,79,0.00,,,0.00,0.000000,,2013-02-09 15:01:00,
2013-02-09 05:11:00,67.0,60.0,-100.00,NE,53,5.0,7.0,79,0.00,,,0.00,0.000000,,2013-02-09 15:11:00,
2013-02-09 05:32:00,68.0,61.0,-100.00,NE,47,6.0,7.0,78,0.00,,,0.00,0.000000,,2013-02-09 15:32:00,
2013-02-09 05:42:00,68.0,61.0,-100.00,NE,47,6.0,7.0,78,0.00,,,0.00,0.000000,,2013-02-09 15:42:00,
2013-02-09 05:52:00,68.0,61.0,-100.00,NE,47,6.0,7.0,78,0.00,,,0.00,0.000000,,2013-02-09 15:52:00,
2013-02-09 06:01:00,68.0,61.0,-100.00,NE,47,6.0,7.0,78,0.00,,,0.00,0.000000,,2013-02-09 16:01:00,
2013-02-09 06:11:00,68.0,61.0,-100.00,NE,47,6.0,7.0,78,0.00,,,0.00,0.000000,,2013-02-09 16:11:00,
2013-02-09 06:32:00,67.0,60.0,-100.00,ENE,72,4.0,7.0,79,0.00,,,0.00,0.000000,,2013-02-09 16:32:00,
2013-02-09 06:42:00,67.0,60.0,-100.00,ENE,72,4.0,7.0,79,0.00,,,0.00,0.000000,,2013-02-09 16:42:00,
2013-02-09 06:52:00,67.0,60.0,-100.00,ENE,72,4.0,7.0,79,0.00,,,0.00,0.000000,,2013-02-09 16:52:00,
2013-02-09 07:01:00,67.0,60.0,-100.00,ENE,72,4.0,7.0,79,0.00,,,0.00,0.000000,,2013-02-09 17:01:00,
2013-02-09 07:11:00,67.0,60.0,-100.00,ENE,72,4.0,7.0,79,0.00,,,0.00,0.000000,,2013-02-09 17:11:00,
2013-02-09 07:32:00,66.0,59.0,-100.00,SE,137,2.0,5.0,78,0.00,,,0.00,4.000000,,2013-02-09 17:32:00,
2013-02-09 07:42:00,66.0,59.0,-100.00,SE,137,2.0,5.0,78,0.00,,,0.00,4.000000,,2013-02-09 17:42:00,
2013-02-09 07:52:00,66.0,59.0,-100.00,SE,137,2.0,5.0,78,0.00,,,0.00,4.000000,,2013-02-09 17:52:00,
2013-02-09 08:01:00,66.0,59.0,-100.00,SE,137,2.0,5.0,78,0.00,,,0.00,4.000000,,2013-02-09 18:01:00,
2013-02-09 08:11:00,66.0,59.0,-100.00,SE,137,2.0,5.0,78,0.00,,,0.00,4.000000,,2013-02-09 18:11:00,
2013-02-09 08:32:00,76.0,62.0,-100.00,NE,50,1.0,4.0,62,0.00,,,0.00,116.000000,,2013-02-09 18:32:00,
2013-02-09 08:42:00,76.0,62.0,-100.00,NE,50,1.0,4.0,62,0.00,,,0.00,116.000000,,2013-02-09 18:42:00,
2013-02-09 08:52:00,76.0,62.0,-100.00,NE,50,1.0,4.0,62,0.00,,,0.00,116.000000,,2013-02-09 18:52:00,
2013-02-09 09:01:00,76.0,62.0,-100.00,NE,50,1.0,4.0,62,0.00,,,0.00,116.000000,,2013-02-09 19:01:00,
2013-02-09 09:11:00,76.0,62.0,-100.00,NE,50,1.0,4.0,62,0.00,,,0.00,116.000000,,2013-02-09 19:11:00,
2013-02-09 09:42:00,79.0,62.0,-100.00,South,171,5.0,8.0,57,0.00,,,0.00,357.000000,,2013-02-09 19:42:00,
2013-02-09 09:52:00,79.0,62.0,-100.00,South,171,5.0,8.0,57,0.00,,,0.00,357.000000,,2013-02-09 19:52:00,
2013-02-09 10:01:00,79.0,62.0,-100.00,South,171,5.0,8.0,57,0.00,,,0.00,357.000000,,2013-02-09 20:01:00,
2013-02-09 10:11:00,79.0,62.0,-100.00,South,171,5.0,8.0,57,0.00,,,0.00,357.000000,,2013-02-09 20:11:00,
2013-02-09 10:32:00,81.0,63.0,-100.00,South,185,6.0,9.0,55,0.00,,,0.00,610.000000,,2013-02-09 20:32:00,
2013-02-09 10:42:00,81.0,63.0,-100.00,South,185,6.0,9.0,55,0.00,,,0.00,610.000000,,2013-02-09 20:42:00,
2013-02-09 10:52:00,81.0,63.0,-100.00,South,185,6.0,9.0,55,0.00,,,0.00,610.000000,,2013-02-09 20:52:00,
2013-02-09 11:01:00,81.0,63.0,-100.00,South,185,6.0,9.0,55,0.00,,,0.00,610.000000,,2013-02-09 21:01:00,
2013-02-09 11:11:00,81.0,63.0,-100.00,South,185,6.0,9.0,55,0.00,,,0.00,610.000000,,2013-02-09 21:11:00,
2013-02-09 11:42:00,80.0,65.0,-100.00,WSW,240,8.0,11.0,60,0.00,,,0.00,815.000000,,2013-02-09 21:42:00,
2013-02-09 11:52:00,80.0,65.0,-100.00,WSW,240,8.0,11.0,60,0.00,,,0.00,815.000000,,2013-02-09 21:52:00,
2013-02-09 12:01:00,80.0,65.0,-100.00,WSW,240,8.0,11.0,60,0.00,,,0.00,815.000000,,2013-02-09 22:01:00,
2013-02-09 12:11:00,80.0,65.0,-100.00,WSW,240,8.0,11.0,60,0.00,,,0.00,815.000000,,2013-02-09 22:11:00,
2013-02-09 12:32:00,81.0,66.0,-100.00,SW,229,8.0,13.0,60,0.00,,,0.00,950.000000,,2013-02-09 22:32:00,
2013-02-09 12:42:00,81.0,66.0,-100.00,SW,229,8.0,13.0,60,0.00,,,0.00,950.000000,,2013-02-09 22:42:00,
2013-02-09 12:52:00,81.0,66.0,-100.00,SW,229,8.0,13.0,60,0.00,,,0.00,950.000000,,2013-02-09 22:52:00,
2013-02-09 13:01:00,81.0,66.0,-100.00,SW,229,8.0,13.0,60,0.00,,,0.00,950.000000,,2013-02-09 23:01:00,
2013-02-09 13:11:00,81.0,66.0,-100.00,SW,229,8.0,13.0,60,0.00,,,0.00,950.000000,,2013-02-09 23:11:00,
2013-02-09 13:42:00,82.0,61.0,-100.00,SW,229,8.0,12.0,50,0.00,,,0.00,1008.000000,,2013-02-09 23:42:00,
2013-02-09 13:52:00,82.0,61.0,-100.00,SW,229,8.0,12.0,50,0.00,,,0.00,1008.000000,,2013-02-09 23:52:00,
2013-02-09 14:02:00,82.0,61.0,-100.00,SW,229,8.0,12.0,50,0.00,,,0.00,1008.000000,,2013-02-10 00:02:00,
2013-02-09 14:11:00,82.0,61.0,-100.00,SW,229,8.0,12.0,50,0.00,,,0.00,1008.000000,,2013-02-10 00:11:00,
2013-02-09 14:42:00,82.0,63.0,-100.00,SW,215,8.0,12.0,53,0.00,,,0.00,980.000000,,2013-02-10 00:42:00,
2013-02-09 14:52:00,82.0,63.0,-100.00,SW,215,8.0,12.0,53,0.00,,,0.00,980.000000,,2013-02-10 00:52:00,
2013-02-09 15:01:00,82.0,63.0,-100.00,SW,215,8.0,12.0,53,0.00,,,0.00,980.000000,,2013-02-10 01:01:00,
2013-02-09 15:11:00,82.0,63.0,-100.00,SW,215,8.0,12.0,53,0.00,,,0.00,980.000000,,2013-02-10 01:11:00,
2013-02-09 15:42:00,82.0,62.0,-100.00,SSW,194,8.0,12.0,51,0.00,,,0.00,857.000000,,2013-02-10 01:42:00,
2013-02-09 15:52:00,82.0,62.0,-100.00,SSW,194,8.0,12.0,51,0.00,,,0.00,857.000000,,2013-02-10 01:52:00,
2013-02-09 16:01:00,82.0,62.0,-100.00,SSW,194,8.0,12.0,51,0.00,,,0.00,857.000000,,2013-02-10 02:01:00,
2013-02-09 16:11:00,82.0,62.0,-100.00,SSW,194,8.0,12.0,51,0.00,,,0.00,857.000000,,2013-02-10 02:11:00,
2013-02-09 16:42:00,80.0,61.0,-100.00,South,183,6.0,11.0,53,0.00,,,0.00,485.000000,,2013-02-10 02:42:00,
2013-02-09 16:52:00,80.0,61.0,-100.00,South,183,6.0,11.0,53,0.00,,,0.00,485.000000,,2013-02-10 02:52:00,
2013-02-09 17:01:00,80.0,61.0,-100.00,South,183,6.0,11.0,53,0.00,,,0.00,485.000000,,2013-02-10 03:01:00,
2013-02-09 17:11:00,80.0,61.0,-100.00,South,183,6.0,11.0,53,0.00,,,0.00,485.000000,,2013-02-10 03:11:00,
2013-02-09 17:42:00,80.0,62.0,-100.00,South,187,6.0,10.0,55,0.00,,,0.00,345.000000,,2013-02-10 03:42:00,
2013-02-09 17:52:00,80.0,62.0,-100.00,South,187,6.0,10.0,55,0.00,,,0.00,345.000000,,2013-02-10 03:52:00,
2013-02-09 18:01:00,80.0,62.0,-100.00,South,187,6.0,10.0,55,0.00,,,0.00,345.000000,,2013-02-10 04:01:00,
2013-02-09 18:11:00,80.0,62.0,-100.00,South,187,6.0,10.0,55,0.00,,,0.00,345.000000,,2013-02-10 04:11:00,
2013-02-09 18:42:00,77.0,63.0,-100.00,SSE,159,5.0,10.0,63,0.00,,,0.00,111.000000,,2013-02-10 04:42:00,
2013-02-09 18:52:00,77.0,63.0,-100.00,SSE,159,5.0,10.0,63,0.00,,,0.00,111.000000,,2013-02-10 04:52:00,
2013-02-09 19:01:00,77.0,63.0,-100.00,SSE,159,5.0,10.0,63,0.00,,,0.00,111.000000,,2013-02-10 05:01:00,
2013-02-09 19:11:00,77.0,63.0,-100.00,SSE,159,5.0,10.0,63,0.00,,,0.00,111.000000,,2013-02-10 05:11:00,
2013-02-09 19:32:00,74.0,64.0,-100.00,SE,124,4.0,6.0,70,0.00,,,0.00,2.000000,,2013-02-10 05:32:00,
2013-02-09 19:42:00,74.0,64.0,-100.00,SE,124,4.0,6.0,70,0.00,,,0.00,2.000000,,2013-02-10 05:42:00,
2013-02-09 19:52:00,74.0,64.0,-100.00,SE,124,4.0,6.0,70,0.00,,,0.00,2.000000,,2013-02-10 05:52:00,
2013-02-09 20:01:00,74.0,64.0,-100.00,SE,124,4.0,6.0,70,0.00,,,0.00,2.000000,,2013-02-10 06:01:00,
2013-02-09 20:11:00,74.0,64.0,-100.00,SE,124,4.0,6.0,70,0.00,,,0.00,2.000000,,2013-02-10 06:11:00,
2013-02-09 20:42:00,73.0,64.0,-100.00,SW,220,2.0,6.0,73,0.00,,,0.00,0.000000,,2013-02-10 06:42:00,
2013-02-09 20:52:00,73.0,64.0,-100.00,SW,220,2.0,6.0,73,0.00,,,0.00,0.000000,,2013-02-10 06:52:00,
2013-02-09 21:01:00,73.0,64.0,-100.00,SW,220,2.0,6.0,73,0.00,,,0.00,0.000000,,2013-02-10 07:01:00,
2013-02-09 21:11:00,73.0,64.0,-100.00,SW,220,2.0,6.0,73,0.00,,,0.00,0.000000,,2013-02-10 07:11:00,
2013-02-09 21:42:00,72.0,64.0,-100.00,ESE,115,5.0,6.0,77,0.00,,,0.00,0.000000,,2013-02-10 07:42:00,
2013-02-09 21:52:00,72.0,64.0,-100.00,ESE,115,5.0,6.0,77,0.00,,,0.00,0.000000,,2013-02-10 07:52:00,
2013-02-09 22:01:00,72.0,64.0,-100.00,ESE,115,5.0,6.0,77,0.00,,,0.00,0.000000,,2013-02-10 08:01:00,
2013-02-09 22:11:00,72.0,64.0,-100.00,ESE,115,5.0,6.0,77,0.00,,,0.00,0.000000,,2013-02-10 08:11:00,
2013-02-09 22:43:00,74.0,65.0,-100.00,East,80,5.0,8.0,73,0.00,,,0.00,0.000000,,2013-02-10 08:43:00,
2013-02-09 22:52:00,74.0,65.0,-100.00,East,80,5.0,8.0,73,0.00,,,0.00,0.000000,,2013-02-10 08:52:00,
2013-02-09 23:02:00,74.0,65.0,-100.00,East,80,5.0,8.0,73,0.00,,,0.00,0.000000,,2013-02-10 09:02:00,
2013-02-09 23:11:00,74.0,65.0,-100.00,East,80,5.0,8.0,73,0.00,,,0.00,0.000000,,2013-02-10 09:11:00,
2013-02-09 23:42:00,71.0,62.0,-100.00,ESE,116,4.0,7.0,72,0.00,,,0.00,0.000000,,2013-02-10 09:42:00,
2013-02-09 23:52:00,71.0,62.0,-100.00,ESE,116,4.0,7.0,72,0.00,,,0.00,0.000000,,2013-02-10 09:52:00,